CDT,Max TemperatureF,Mean TemperatureF,Min TemperatureF,Max Dew PointF,MeanDew PointF,Min DewpointF,Max Humidity, Mean Humidity, Min Humidity, Max Sea Level PressureIn, Mean Sea Level PressureIn, Min Sea Level PressureIn, Max VisibilityMiles, Mean VisibilityMiles, Min VisibilityMiles, Max Wind SpeedMPH, Mean Wind SpeedMPH, Max Gust SpeedMPH,PrecipitationIn, CloudCover, Events, WindDirDegrees
2013-6-1,67,61,54,62,54,49,93,80,67,29.95,29.79,29.67,10,10,7,23,13,29,T,5,,271
2013-6-2,65,57,49,51,47,44,93,73,52,30.09,30.04,29.96,10,9,2,21,8,28,0.01,6,Rain,340
2013-6-3,70,59,47,51,48,44,86,67,47,30.09,30.02,29.94,10,10,10,15,6,21,0.00,0,,161
2013-6-4,70,63,56,61,56,50,87,78,69,30.05,29.99,29.95,10,9,2,24,9,31,0.28,5,Rain-Thunderstorm,129
2013-6-5,65,61,57,61,60,57,93,86,78,30.00,29.97,29.94,10,5,0,14,4,17,0.28,7,Fog-Rain,11
2013-6-6,72,62,52,59,53,49,93,73,53,29.98,29.95,29.93,10,10,3,13,6,20,0.00,3,,339
2013-6-7,71,61,50,53,51,47,93,72,51,30.02,29.98,29.93,10,10,8,14,6,18,0.00,2,,346
2013-6-8,75,64,53,60,54,50,86,66,46,29.95,29.87,29.78,10,9,5,24,9,38,0.24,3,Rain,162
2013-6-9,70,66,61,63,59,57,93,81,68,29.85,29.78,29.75,10,9,2,20,11,25,0.56,8,Rain,241
2013-6-10,78,70,61,64,60,57,93,76,58,29.91,29.85,29.78,10,10,10,7,5,9,0.00,5,,297
2013-6-11,82,74,65,70,65,61,87,75,62,29.88,29.80,29.75,10,10,10,13,6,17,0.00,0,,154
2013-6-12,89,77,64,72,66,56,84,70,55,29.93,29.78,29.72,10,10,10,29,13,36,0.00,1,,249
2013-6-13,81,70,59,64,58,53,84,68,51,30.06,30.00,29.91,10,10,10,17,6,22,0.00,1,,327
2013-6-14,75,69,62,64,62,59,93,79,64,30.10,30.01,29.87,10,8,2,36,9,45,1.45,4,Rain-Thunderstorm,137
2013-6-15,80,72,63,72,64,61,93,81,69,30.07,29.95,29.90,10,9,2,29,10,39,0.25,5,Rain-Thunderstorm,172
2013-6-16,82,72,61,68,64,60,100,79,58,29.99,29.96,29.93,10,7,0,8,2,13,0.00,3,Fog,84
2013-6-17,86,75,63,68,63,60,100,72,44,30.00,29.96,29.91,10,6,0,13,2,21,0.00,0,Fog-Thunderstorm,286
2013-6-18,80,71,62,65,60,55,78,66,54,30.05,29.99,29.96,10,10,10,14,6,18,0.01,1,Rain,289
2013-6-19,83,73,62,65,62,59,93,74,54,30.05,30.01,29.97,10,10,10,14,7,24,0.00,1,,150
2013-6-20,86,77,67,67,64,61,81,66,51,30.02,29.97,29.91,10,10,10,20,10,29,0.00,0,,153
2013-6-21,89,81,73,75,70,66,82,72,57,29.97,29.92,29.86,10,10,10,18,9,26,0.00,0,,176
2013-6-22,90,82,73,71,69,68,84,68,52,29.99,29.91,29.83,10,10,10,21,11,26,0.00,0,,185
2013-6-23,77,71,65,70,66,61,87,81,74,30.00,29.91,29.83,10,9,2,33,10,43,0.31,4,Rain-Thunderstorm,166
2013-6-24,82,74,65,71,67,63,90,82,74,30.02,29.91,29.81,10,9,2,29,7,37,0.21,3,Rain-Thunderstorm,168
2013-6-25,85,78,71,73,70,67,87,75,63,29.83,29.77,29.72,10,10,10,16,8,24,0.05,1,,167
2013-6-26,90,82,73,76,68,61,87,63,38,29.86,29.76,29.66,10,10,9,21,9,28,0.00,1,,268
2013-6-27,85,77,72,69,67,65,84,70,55,29.98,29.91,29.86,10,10,10,13,6,,T,2,Rain,288
2013-6-28,85,75,65,64,58,54,79,58,37,29.91,29.86,29.81,10,10,10,26,12,32,0.00,0,,317
2013-6-29,78,69,60,62,57,53,78,64,50,29.90,29.81,29.78,10,9,2,29,13,37,0.09,2,Rain,333
2013-6-30,78,68,58,59,55,51,84,64,43,30.06,29.99,29.90,10,10,10,20,9,25,0.00,0,,5